East Middlebury, VT

4:26 AM EST on January 19, 2017 (GMT -0500)
Middlebury State AP, Middlebu

Weather History for K6B0 - August, 2014

Change the Weather History Date:

Saturday, August 16, 2014

  Actual Average (KRUT) Record (KRUT)
Temperature  
Mean Temperature 62 °F -  
Max Temperature 68 °F 80 °F 92 °F (1959)
Min Temperature 55 °F 57 °F 41 °F (1972)
Degree Days  
Heating Degree Days 4    
Growing Degree Days 12 (Base 50)    
Moisture  
Dew Point 55 °F    
Average Humidity 79    
Maximum Humidity 100    
Minimum Humidity 55    
Precipitation  
Precipitation 0.06 in - - ()
Sea Level Pressure  
Sea Level Pressure 29.90 in    
Wind  
Wind Speed 4 mph (SSE)    
Max Wind Speed 12 mph    
Max Gust Speed 18 mph    
Visibility 10 miles    
Events Rain    
Averages and records for this station are not official NWS values.
T = Trace of Precipitation, MM = Missing Value Source: NWS Daily Summary

Daily Weather History Graph

Daily Weather History Graph

Search for Another Location

Airport or City:

Trip Planner

Search our weather history database for the weather conditions in past years. The results will help you decide how hot, cold, wet, or windy it might be!

Date:

Astronomy

Aug. 16, 2014 Rise Set
Actual Time 5:57 AM EDT 7:55 PM EDT
Civil Twilight 5:26 AM EDT 8:26 PM EDT
Nautical Twilight 4:47 AM EDT 9:04 PM EDT
Astronomical Twilight 4:06 AM EDT 9:45 PM EDT
Moon 11:21 PM EDT (8/16) 12:55 PM EDT (8/16)
Length of Visible Light 15h 00m
Length of Day
13h 57m
Waning Gibbous, 59% of the Moon is Illuminated
Aug 16
Waning Gibbous
Aug 17
Last Quarter
Aug 25
New
Sep 2
First Quarter
Sep 8
Full

Hourly Weather History & Observations

Time (EDT) Temp. Dew Point Humidity Pressure Visibility Wind Dir Wind Speed Gust Speed Precip Events Conditions
12:15 AM 56.8 °F 56.8 °F 100% 29.90 in 10.0 mi Calm Calm - N/A Rain Light Rain
12:35 AM 56.5 °F 56.5 °F 100% 29.90 in 10.0 mi Calm Calm - 0.01 in Rain Light Rain
1:15 AM 56.5 °F 56.5 °F 100% 29.90 in 10.0 mi Calm Calm - N/A Rain Light Rain
1:35 AM 56.5 °F 56.5 °F 100% 29.90 in 10.0 mi Calm Calm - N/A Rain Light Rain
1:55 AM 56.3 °F 56.3 °F 100% 29.90 in 10.0 mi Calm Calm - N/A   Overcast
2:15 AM 56.7 °F 56.7 °F 100% 29.89 in 10.0 mi SE 3.5 mph - N/A   Overcast
2:35 AM 57.0 °F 56.5 °F 98% 29.89 in 10.0 mi SE 3.5 mph - N/A   Overcast
2:55 AM 56.7 °F 56.5 °F 99% 29.89 in 10.0 mi SE 3.5 mph - N/A   Overcast
3:15 AM 56.7 °F 56.3 °F 99% 29.89 in 10.0 mi SSE 3.5 mph - N/A   Overcast
3:35 AM 56.7 °F 56.3 °F 99% 29.89 in 10.0 mi Calm Calm - N/A   Overcast
3:55 AM 56.7 °F 56.3 °F 99% 29.89 in 10.0 mi SE 4.6 mph - N/A   Overcast
4:15 AM 57.2 °F 56.1 °F 96% 29.89 in 10.0 mi SE 4.6 mph - N/A   Overcast
4:35 AM 57.2 °F 56.3 °F 97% 29.89 in 10.0 mi SE 3.5 mph - N/A   Overcast
4:55 AM 56.7 °F 56.1 °F 98% 29.89 in 10.0 mi Calm Calm - N/A   Overcast
5:15 AM 56.5 °F 55.8 °F 97% 29.89 in 10.0 mi SSE 3.5 mph - N/A   Overcast
5:35 AM 56.3 °F 55.4 °F 97% 29.89 in 10.0 mi SE 3.5 mph - N/A   Mostly Cloudy
5:55 AM 55.8 °F 55.4 °F 99% 29.89 in 10.0 mi SSE 3.5 mph - N/A   Mostly Cloudy
6:15 AM 56.5 °F 55.4 °F 96% 29.89 in 10.0 mi SSE 4.6 mph - N/A   Mostly Cloudy
6:35 AM 56.5 °F 55.4 °F 96% 29.90 in 10.0 mi South 3.5 mph - N/A   Mostly Cloudy
6:55 AM 56.5 °F 55.4 °F 96% 29.90 in 10.0 mi South 4.6 mph - N/A   Scattered Clouds
7:15 AM 57.2 °F 55.6 °F 94% 29.91 in 10.0 mi South 4.6 mph - N/A   Scattered Clouds
7:30 AM 59.2 °F 56.8 °F 92% 29.91 in 10.0 mi South 4.6 mph - N/A   Scattered Clouds
7:55 AM 59.2 °F 56.3 °F 90% 29.92 in 10.0 mi South 6.9 mph - N/A   Scattered Clouds
8:15 AM 59.9 °F 56.7 °F 89% 29.92 in 10.0 mi SSE 9.2 mph - N/A   Overcast
8:35 AM 61.3 °F 57.0 °F 86% 29.92 in 10.0 mi South 8.1 mph - N/A   Mostly Cloudy
8:55 AM 63.3 °F 58.1 °F 83% 29.92 in 10.0 mi South 11.5 mph 16.1 mph 0.01 in   Scattered Clouds
9:15 AM 63.7 °F 57.7 °F 81% 29.92 in 10.0 mi South 9.2 mph 18.4 mph N/A   Clear
9:35 AM 64.6 °F 54.5 °F 70% 29.92 in 10.0 mi South 9.2 mph - N/A   Clear
9:50 AM 64.8 °F 55.0 °F 71% 29.92 in 10.0 mi SSE 6.9 mph 16.1 mph N/A   Mostly Cloudy
10:15 AM 64.6 °F 55.6 °F 73% 29.92 in 10.0 mi South 9.2 mph - N/A   Overcast
10:35 AM 65.3 °F 54.0 °F 67% 29.93 in 10.0 mi South 11.5 mph - N/A   Overcast
10:55 AM 64.9 °F 54.7 °F 69% 29.93 in 10.0 mi South 10.4 mph - N/A   Overcast
11:15 AM 64.9 °F 55.6 °F 72% 29.92 in 10.0 mi South 8.1 mph - N/A   Mostly Cloudy
11:35 AM 66.0 °F 55.8 °F 69% 29.93 in 10.0 mi SSW 6.9 mph - N/A   Scattered Clouds
11:55 AM 67.8 °F 54.9 °F 63% 29.92 in 10.0 mi South 9.2 mph - N/A Rain Light Rain
12:15 PM 67.6 °F 54.7 °F 63% 29.92 in 10.0 mi South 11.5 mph 16.1 mph N/A   Mostly Cloudy
12:35 PM 67.8 °F 53.1 °F 59% 29.92 in 10.0 mi SSW 10.4 mph - N/A   Clear
12:55 PM 68.5 °F 51.6 °F 55% 29.93 in 10.0 mi South 6.9 mph - N/A   Clear
1:15 PM 67.5 °F 52.2 °F 58% 29.93 in 10.0 mi SW 6.9 mph - N/A   Scattered Clouds
1:35 PM 66.6 °F 53.1 °F 62% 29.93 in 10.0 mi South 5.8 mph - N/A   Scattered Clouds
1:50 PM 66.4 °F 54.0 °F 64% 29.92 in 10.0 mi South 5.8 mph - N/A   Mostly Cloudy
2:20 PM 67.1 °F 54.9 °F 65% 29.94 in 10.0 mi South 6.9 mph - N/A   Mostly Cloudy
2:35 PM 67.6 °F 54.7 °F 63% 29.93 in 10.0 mi South 8.1 mph - N/A   Scattered Clouds
2:55 PM 67.1 °F 55.2 °F 66% 29.92 in 10.0 mi South 5.8 mph - N/A   Clear
3:15 PM 67.3 °F 55.2 °F 65% 29.92 in 10.0 mi South 5.8 mph - N/A   Scattered Clouds
3:30 PM 67.1 °F 55.0 °F 65% 29.92 in 10.0 mi South 6.9 mph - N/A   Clear
3:55 PM 67.1 °F 56.1 °F 68% 29.91 in 10.0 mi SSE 5.8 mph - N/A   Scattered Clouds
4:15 PM 66.6 °F 55.9 °F 69% 29.91 in 10.0 mi SSE 4.6 mph - N/A   Mostly Cloudy
4:35 PM 65.8 °F 55.6 °F 69% 29.91 in 10.0 mi SSE 4.6 mph - N/A   Overcast
4:55 PM 65.3 °F 55.0 °F 69% 29.90 in 10.0 mi SSE 4.6 mph - N/A   Overcast
5:15 PM 65.3 °F 54.3 °F 68% 29.90 in 10.0 mi SSE 5.8 mph - N/A   Scattered Clouds
5:35 PM 65.3 °F 54.7 °F 68% 29.91 in 10.0 mi SSE 5.8 mph - N/A   Scattered Clouds
5:55 PM 64.6 °F 54.3 °F 69% 29.91 in 10.0 mi SSE 4.6 mph - N/A   Mostly Cloudy
6:15 PM 63.9 °F 54.5 °F 72% 29.89 in 10.0 mi SE 4.6 mph - N/A   Overcast
6:55 PM 64.4 °F 52.5 °F 65% 29.88 in 10.0 mi SSE 3.5 mph - N/A Rain Light Rain
7:15 PM 62.6 °F 54.3 °F 74% 29.86 in 10.0 mi SSE 4.6 mph - N/A   Overcast
7:35 PM 63.1 °F 53.4 °F 71% 29.87 in 10.0 mi SSE 4.6 mph - N/A   Overcast
7:55 PM 63.7 °F 52.5 °F 67% 29.87 in 10.0 mi SSE 5.8 mph - N/A   Light Drizzle
8:15 PM 64.0 °F 52.7 °F 67% 29.87 in 10.0 mi SSE 6.9 mph - N/A   Overcast
8:35 PM 64.9 °F 52.7 °F 64% 29.87 in 10.0 mi SSE 5.8 mph - N/A   Overcast
8:55 PM 65.5 °F 52.9 °F 64% 29.86 in 10.0 mi South 9.2 mph - N/A   Overcast
9:15 PM 65.7 °F 52.7 °F 63% 29.86 in 10.0 mi South 9.2 mph - N/A   Overcast
9:55 PM 65.7 °F 52.9 °F 63% 29.86 in 10.0 mi SSE 10.4 mph - N/A   Overcast
10:15 PM 66.2 °F 52.2 °F 61% 29.86 in 10.0 mi SSE 11.5 mph 17.3 mph N/A   Overcast
10:35 PM 63.5 °F 54.1 °F 72% 29.87 in 7.0 mi SSE 8.1 mph - 0.01 in Rain Rain
10:55 PM 60.3 °F 57.6 °F 91% 29.86 in 10.0 mi SSE 8.1 mph - 0.03 in Rain Light Rain
11:15 PM 59.9 °F 58.3 °F 94% 29.85 in 10.0 mi SSE 6.9 mph - 0.01 in Rain Light Rain
11:35 PM 59.9 °F 57.9 °F 93% 29.85 in 10.0 mi SE 5.8 mph - 0.01 in Rain Rain
11:55 PM 60.4 °F 56.3 °F 86% 29.84 in 10.0 mi SSE 8.1 mph - 0.02 in Rain Light Rain